Regional Weather Roundup
Issued by NWS

Home | Current Version | Previous Version | Text Only | Print | Product List | Glossary Off
Versions: 1 2 3 4 5 6 7 8 9 10 11 12 13 14 15 16 17 18 19 20 21 22 23 24 25 26 27

000
ASUS45 KSLC 211110
RWRUT

UTAH REGIONAL WEATHER ROUNDUP
NATIONAL WEATHER SERVICE SALT LAKE CITY UT
400 AM MST SAT JAN 21 2017

UTZ001>011-023>025-211200-

NORTHERN UTAH

CITY           SKY/WX    TMP DP  RH WIND       PRES   REMARKS
BRIGHAM CITY     N/A     32  30  93 CALM      29.30S
HILL AFB       LGT SNOW  31  30  94 SE3       29.27F FOG
LOGAN          CLOUDY    25  25 100 N3        29.30S FOG
OGDEN          LGT SNOW  32  31  96 CALM      29.27F VSB 1
SALT LAKE CITY LGT SNOW  33  32  96 CALM      29.27S FOG
TOOELE VALLEY  LGT SNOW  32  32 100 CALM      29.28S
WENDOVER       CLOUDY    27  25  93 CALM      29.31S
HEBER CITY     LGT SNOW  28  27  93 CALM      29.26F VSB 1
WEST JORDAN    CLOUDY    32  32 100 S5        29.27F WCI  28

$$

UTZ011>015-024>027-211200-

CENTRAL/NORTHEAST UTAH

CITY           SKY/WX    TMP DP  RH WIND       PRES   REMARKS
PROVO AIRPORT  LGT SNOW  32  31  96 NW7       29.27F FOG     WCI  26
MOAB/CANYONLAN LGT RAIN  36  33  89 E6        29.30F WCI  31
DELTA          CLOUDY    32  32 100 CALM      29.26S VSB 3/4
PRICE          LGT SNOW  30  30 100 E6        29.29F FOG     WCI  24
RICHFIELD      MOCLDY    30  30 100 CALM      29.29S
ROOSEVELT      LGT SNOW  23  21  93 E6        29.38F WCI  16
VERNAL         LGT SNOW  20  18  92 E3        29.35F FOG

$$

UTZ013>016-019>022-027-211200-

SOUTHERN UTAH

CITY           SKY/WX    TMP DP  RH WIND       PRES   REMARKS
BRYCE CANYON   CLOUDY    24  22  91 SE10      29.27F FOG     WCI  14
CEDAR CITY     CLOUDY    30  28  92 S10       29.30S WCI  21
MILFORD        CLOUDY    33  32  96 S12       29.27R WCI  24
ST GEORGE      CLOUDY    41  36  81 NE5       29.38R
HANKSVILLE     CLOUDY    34  32  93 MISG      29.32F
KANAB          CLOUDY    34  34 100 S7        29.38R WCI  28
BLANDING       CLOUDY    31  31 100 SE15      29.38F VSB 1   WCI  20

$$

REGIONAL REPORTS     COLORADO/ARIZONA

CITY           SKY/WX    TMP DP  RH WIND       PRES   REMARKS
CRAIG, CO      CLOUDY    17  11  77 CALM      29.34F
GRAND JUNCTION CLOUDY    34  28  79 E12       29.34F WCI  25
RIFLE, CO      CLOUDY    25  24  96 SE3       29.36F
MONTROSE, CO   CLOUDY    32  18  56 E14       29.37F WCI  22
CORTEZ, CO     LGT SNOW  33  29  85 VRB6      29.35F FOG     WCI  28
COLORADO CITY  LGT SNOW  34  34 100 SW12      29.38R WCI  25
PAGE, AZ       CLOUDY    37  32  82 CALM      29.31S HAZE
GRAND CANYON   CLOUDY    28  28 100 SW15G24   29.37R WCI  16
KINGMAN, AZ    MOCLDY    40  34  79 SW22G30   29.44R WCI  30
FLAGSTAFF, AZ  LGT SNOW  28  26  92 SW17G25   29.38S FOG     WCI  16

$$

REGIONAL REPORTS    NEVADA/IDAHO/WYOMING

CITY           SKY/WX    TMP DP  RH WIND       PRES   REMARKS
LAS VEGAS, NV  PTCLDY    47  28  47 SW12      29.39R
ELY, NY        MOCLDY    24  19  81 W10       29.31R WCI  14
ELKO, NV       MOCLDY    27  24  89 SW6       29.33R WCI  20
POCATELLO, ID  CLOUDY    27  25  92 N6        29.29S WCI  20
BURLEY, ID     CLOUDY    32  28  85 SW5       29.28R WCI  27
FORT BRIDGER,  CLOUDY    13  13 100 W7        29.33R WCI   2
EVANSTON, WY   CLOUDY    15  10  80 E9        29.27F WCI   3
ROCK SPRINGS,  CLOUDY    15  12  88 NE7       29.30F WCI   5

$$




USA.gov is the U.S. government's official web portal to all federal, state and local government web resources and services.